Wind_Speed
33 33 33 32 32 32 32 32 33 32 31 31 30 29 29 28 28 27 27 27 25 24 23 23 23 21 21 20 19 18 17 16 16 16 16 16 16 16 16 16 15 15 15
36 37 37 36 36 35 35 35 36 36 35 35 34 33 33 32 30 30 29 29 28 27 26 25 25 25 24 23 22 21 20 19 18 17 17 17 17 17 17 17 17 17 16
39 39 39 39 38 38 38 38 39 40 39 39 38 37 36 34 33 31 31 30 30 29 28 27 27 27 27 26 25 24 23 22 20 20 19 19 19 19 18 19 18 18 18
42 42 41 40 39 40 40 40 41 42 42 42 41 40 37 36 34 32 32 33 32 31 31 30 29 29 29 28 27 27 26 25 24 22 22 21 21 21 21 20 20 20 20
39 40 40 40 40 40 41 42 42 42 42 42 41 39 38 37 34 33 31 32 33 32 31 31 30 30 30 30 30 29 28 27 26 26 24 23 23 23 22 22 22 21 21
39 40 39 40 40 40 40 41 42 42 42 41 39 37 35 35 35 35 33 32 31 32 32 32 31 30 31 31 30 30 30 30 29 28 26 25 24 24 24 23 23 23 23
37 39 39 38 39 40 40 42 42 41 41 40 38 36 34 32 32 33 33 32 31 32 32 31 30 31 31 31 31 31 31 31 31 30 28 27 26 26 25 25 24 24 24
35 36 37 38 39 39 40 40 40 41 40 41 38 35 33 32 32 32 32 31 32 33 32 31 31 31 31 31 32 32 32 32 32 31 30 29 28 27 27 26 26 25 25
34 35 36 37 38 38 39 39 40 40 39 39 38 37 35 33 32 31 31 31 31 31 32 33 32 33 32 31 32 33 32 32 32 32 31 29 29 28 28 27 27 26 25
34 35 36 37 38 38 38 38 38 39 39 38 38 37 35 33 31 30 31 32 32 31 32 33 33 32 32 32 32 32 32 31 32 33 32 31 30 29 29 28 27 27 26
34 35 36 37 38 38 39 39 38 38 38 38 37 36 36 34 32 31 31 31 32 32 32 33 32 32 32 33 33 33 32 32 32 33 33 32 31 30 29 28 28 27 27
35 36 36 37 38 39 39 39 39 39 38 38 38 37 36 35 34 33 33 32 33 33 33 32 32 31 32 33 33 34 33 33 34 34 34 33 32 31 30 29 29 28 28
35 36 37 37 38 39 39 39 39 39 39 39 38 37 37 37 36 35 34 34 34 34 33 32 31 31 31 32 32 33 33 34 34 34 35 34 33 32 31 31 31 31 30
35 36 36 37 38 39 39 39 39 39 40 39 38 38 38 36 36 35 36 35 34 34 33 33 32 32 32 31 32 32 33 33 34 34 35 35 34 33 33 33 33 32 32
35 36 36 37 37 38 39 39 39 39 39 39 39 39 38 37 37 37 37 36 35 35 35 34 32 32 33 32 32 33 33 34 35 36 36 36 35 35 34 34 34 33 33
36 36 36 36 36 37 38 38 39 40 40 39 39 39 38 37 37 37 37 37 36 36 36 34 33 33 33 33 34 34 35 35 37 37 37 37 37 36 36 35 34 34 34
36 36 36 36 36 36 36 36 37 38 38 38 38 38 37 36 36 36 36 35 34 35 35 34 34 34 34 34 35 35 35 35 36 37 37 38 37 36 36 35 35 35 35
37 37 37 36 35 35 35 35 34 35 35 36 35 35 35 35 34 34 34 33 33 33 33 34 34 34 33 33 33 34 35 37 37 36 37 36 35 34 34 34 34 35 36
37 37 36 35 34 33 33 33 32 31 31 31 30 31 31 31 32 32 32 32 32 32 33 33 34 34 34 33 33 33 34 36 36 35 34 33 32 33 33 33 34 36 37
38 37 36 35 33 32 31 29 28 27 26 26 26 26 27 27 28 29 29 29 29 29 30 31 32 32 32 32 32 31 31 32 31 30 30 31 32 32 32 33 35 36 38
38 36 35 34 32 31 29 28 26 24 23 23 22 23 23 23 23 24 24 23 25 27 27 27 28 29 29 30 29 29 28 28 26 27 28 29 30 30 32 34 35 37 39
38 36 35 33 31 29 27 26 24 22 20 19 18 17 18 20 20 20 21 21 22 23 25 26 27 27 26 26 25 25 24 24 23 24 25 27 29 30 32 33 35 37 38
38 35 34 31 29 27 26 24 21 20 18 17 15 15 16 17 18 18 19 19 20 20 22 24 24 23 22 20 19 18 18 18 20 21 22 24 25 27 29 31 33 36 38
38 35 32 29 28 26 23 20 19 18 16 15 15 14 14 15 15 16 16 17 19 19 20 21 20 19 17 15 14 14 15 16 18 19 20 21 23 26 28 31 34 37 39
37 35 31 28 25 23 21 19 17 16 15 14 14 13 14 14 15 16 17 17 19 18 16 16 15 14 13 11 10 11 11 12 13 15 17 20 22 25 28 30 33 36 38
37 35 32 28 25 22 20 18 16 14 14 13 13 14 14 15 16 17 16 17 18 16 14 13 12 11 10 8 8 8 9 10 12 14 16 19 22 25 28 31 33 35 37
Wind_Direction
275 273 272 273 273 274 273 274 275 274 274 273 272 272 272 273 274 274 273 272 271 269 270 267 265 265 264 263 262 262 262 262 262 261 260 259 258 258 256 256 257 256 256
273 269 270 271 272 273 273 273 272 271 271 270 269 268 268 269 269 271 272 271 270 269 269 268 266 263 261 259 258 258 259 260 260 260 260 259 258 257 257 257 256 256 256
274 272 268 269 271 272 272 273 273 273 271 269 267 267 265 266 266 268 269 269 269 269 269 266 264 262 260 258 255 254 255 256 257 258 258 259 258 257 257 257 257 256 255
277 276 272 269 269 270 272 273 273 273 272 269 267 266 265 265 265 267 268 268 268 269 269 266 262 262 258 257 255 253 251 252 254 256 257 258 258 256 256 256 257 256 256
280 278 275 272 271 272 272 274 275 276 275 274 271 268 266 264 263 267 269 268 266 266 266 266 263 261 258 255 254 255 252 250 252 254 256 257 257 257 256 256 256 256 255
282 279 278 276 273 272 274 274 275 276 279 279 275 273 270 264 262 265 266 266 264 263 264 264 263 259 257 254 253 254 254 252 251 251 254 255 256 256 256 256 255 254 254
285 282 280 279 277 275 276 276 275 277 280 280 277 273 269 266 263 262 261 263 264 262 263 264 261 259 256 254 253 254 254 253 251 250 252 253 254 255 255 255 255 253 253
286 284 281 279 278 277 276 276 276 277 279 280 279 277 273 269 269 263 260 260 261 261 261 262 260 258 257 254 253 254 254 254 252 251 251 251 252 254 255 255 254 253 253
288 285 283 281 280 278 277 277 276 276 276 277 277 277 277 275 269 265 261 261 262 262 260 260 259 257 257 256 254 253 253 253 251 249 248 249 251 253 253 254 254 253 252
291 287 284 282 281 279 278 277 276 276 276 277 276 276 276 275 271 265 262 262 263 263 262 260 260 258 257 255 254 253 253 254 251 247 247 250 251 252 252 252 252 251 251
295 291 287 284 282 280 279 277 276 275 275 276 277 276 276 274 272 268 262 261 262 263 262 261 260 258 257 253 252 251 250 251 250 247 247 249 249 251 251 250 250 250 251
297 294 291 287 283 281 279 277 275 275 275 275 275 274 274 273 271 269 266 263 261 260 260 261 259 257 255 252 250 248 248 250 249 247 247 246 247 249 249 249 248 248 249
300 297 293 290 285 282 279 277 275 274 274 274 274 273 272 271 269 268 266 264 262 259 258 258 258 256 254 249 247 246 246 248 248 247 245 244 245 246 246 247 247 248 249
303 300 296 292 287 283 280 277 275 273 273 272 271 271 270 268 268 266 264 263 262 259 259 257 256 254 252 248 245 244 244 245 245 244 243 243 244 245 246 246 247 248 248
305 302 299 295 290 285 282 278 275 273 272 271 269 269 268 266 265 265 263 261 260 257 256 254 255 253 248 247 243 242 243 243 243 244 245 244 245 245 245 246 247 248 249
306 303 301 297 293 289 285 280 277 274 272 270 268 268 267 264 263 262 260 258 256 254 253 253 252 250 247 246 244 245 246 244 243 244 245 245 245 245 245 246 248 249 250
306 304 302 299 295 291 288 284 280 276 272 270 268 266 265 264 261 260 258 255 253 252 251 249 248 246 246 246 246 246 246 244 244 244 245 246 245 245 246 248 249 251 252
305 304 303 301 298 294 291 288 283 277 273 270 268 265 262 261 259 256 253 250 249 248 246 245 243 242 245 245 246 247 247 246 245 244 246 245 245 247 249 250 251 253 254
303 304 303 301 300 297 293 291 287 279 275 270 267 264 260 257 255 253 250 247 245 243 242 241 240 242 244 246 246 247 247 246 247 245 247 247 247 249 251 252 254 255 257
300 301 301 301 300 298 295 293 290 282 276 270 267 263 258 255 251 248 246 244 241 238 235 236 237 238 240 243 244 245 246 247 248 248 249 250 250 252 254 256 259 260 262
297 298 298 299 299 298 295 293 292 285 277 271 266 263 258 250 246 245 242 238 236 234 232 232 234 236 239 242 243 244 245 246 248 250 252 254 256 258 259 261 263 264 265
292 293 295 296 297 297 296 294 291 286 277 269 264 261 253 244 240 237 235 234 232 232 231 231 233 236 239 241 242 243 244 246 250 252 256 259 262 263 264 265 266 268 269
286 288 290 292 293 294 294 292 287 283 277 269 263 259 249 240 235 229 227 224 228 231 233 231 231 232 235 236 235 238 244 249 255 259 261 264 266 269 271 272 273 274 274
280 281 282 285 288 288 288 286 282 279 275 264 256 254 242 236 233 223 224 223 225 228 227 226 226 226 226 227 233 240 247 254 259 263 267 272 275 277 279 279 280 280 280
272 274 275 278 280 282 282 279 274 271 267 257 249 241 232 229 223 222 224 223 222 219 217 215 215 217 217 220 228 239 250 259 267 273 277 280 283 285 286 287 288 287 286
263 265 266 269 270 274 275 273 268 264 255 246 240 233 229 226 220 217 218 216 212 209 205 201 200 202 203 212 228 245 259 269 277 283 287 289 292 295 296 296 295 294 292
Height
5875 5874 5872 5871 5870 5869 5868 5867 5867 5866 5865 5865 5864 5863 5863 5862 5862 5862 5862 5861 5861 5861 5861 5862 5862 5863 5863 5864 5865 5865 5866 5867 5868 5869 5870 5870 5871 5872 5873 5874 5874 5875 5876
5866 5865 5864 5863 5862 5861 5860 5859 5859 5858 5857 5856 5856 5855 5855 5855 5855 5855 5855 5855 5855 5855 5855 5856 5856 5857 5857 5858 5859 5860 5861 5862 5863 5864 5865 5866 5867 5868 5869 5870 5871 5872 5873
5856 5855 5855 5855 5854 5852 5851 5850 5850 5849 5848 5847 5847 5846 5846 5847 5847 5847 5847 5848 5848 5848 5848 5849 5849 5850 5851 5852 5853 5854 5856 5857 5858 5859 5861 5862 5863 5864 5865 5866 5867 5868 5869
5847 5846 5845 5845 5844 5843 5842 5841 5840 5839 5838 5837 5836 5837 5837 5838 5839 5839 5839 5840 5840 5840 5841 5842 5842 5843 5844 5845 5846 5848 5849 5851 5853 5854 5855 5857 5858 5859 5860 5861 5863 5864 5865
5838 5837 5836 5836 5835 5834 5833 5832 5831 5829 5828 5827 5826 5827 5828 5829 5830 5830 5831 5831 5831 5832 5833 5834 5834 5835 5836 5838 5840 5841 5843 5844 5846 5848 5850 5851 5853 5854 5855 5857 5858 5859 5861
5831 5829 5827 5827 5826 5824 5824 5823 5822 5821 5819 5817 5817 5817 5818 5820 5821 5822 5823 5823 5823 5824 5825 5826 5826 5827 5829 5830 5832 5834 5836 5837 5839 5842 5843 5845 5847 5848 5850 5851 5853 5854 5856
5822 5820 5819 5819 5817 5816 5816 5815 5813 5812 5811 5810 5809 5809 5810 5811 5812 5813 5814 5815 5816 5816 5817 5818 5819 5820 5821 5823 5825 5827 5828 5830 5832 5834 5836 5838 5840 5842 5844 5845 5847 5848 5850
5814 5812 5810 5809 5808 5807 5807 5806 5805 5804 5803 5801 5800 5800 5801 5803 5804 5804 5805 5806 5807 5808 5809 5810 5811 5813 5814 5815 5817 5819 5821 5823 5825 5827 5829 5831 5833 5835 5837 5839 5841 5842 5844
5806 5804 5802 5800 5799 5798 5797 5797 5796 5795 5794 5793 5792 5792 5792 5793 5794 5796 5797 5797 5798 5800 5801 5802 5803 5805 5806 5807 5809 5811 5813 5815 5817 5819 5822 5824 5826 5828 5830 5832 5834 5836 5837
5797 5795 5793 5791 5790 5789 5787 5787 5786 5785 5785 5785 5784 5783 5783 5784 5785 5787 5788 5789 5790 5791 5793 5794 5795 5796 5798 5799 5801 5803 5805 5807 5809 5812 5814 5817 5819 5821 5823 5825 5827 5829 5831
5787 5785 5783 5781 5780 5778 5777 5777 5776 5775 5775 5775 5775 5774 5774 5774 5776 5777 5779 5780 5781 5783 5784 5785 5786 5788 5789 5791 5793 5795 5797 5799 5801 5804 5806 5809 5811 5814 5816 5818 5820 5822 5824
5778 5776 5773 5771 5769 5768 5767 5766 5765 5765 5765 5764 5764 5764 5765 5765 5766 5767 5769 5771 5772 5773 5775 5776 5777 5779 5780 5782 5784 5786 5789 5790 5793 5795 5798 5801 5803 5806 5808 5810 5812 5815 5817
5769 5766 5763 5761 5759 5757 5756 5755 5754 5754 5754 5753 5754 5754 5754 5755 5757 5758 5759 5760 5762 5764 5765 5767 5769 5770 5771 5773 5776 5778 5780 5782 5784 5787 5790 5792 5795 5797 5800 5802 5805 5807 5809
5761 5757 5754 5751 5748 5746 5744 5743 5743 5742 5742 5742 5742 5743 5743 5744 5745 5747 5748 5750 5752 5754 5756 5758 5760 5761 5763 5765 5767 5770 5771 5773 5776 5778 5781 5784 5786 5789 5791 5794 5796 5799 5801
5752 5748 5744 5741 5738 5735 5733 5732 5731 5730 5730 5730 5731 5731 5732 5733 5734 5736 5737 5739 5742 5744 5746 5749 5751 5752 5754 5756 5758 5761 5763 5765 5767 5770 5773 5775 5778 5780 5783 5785 5788 5790 5792
5743 5739 5735 5731 5728 5725 5722 5720 5719 5718 5718 5718 5718 5719 5720 5721 5722 5724 5726 5728 5730 5733 5736 5739 5741 5743 5745 5748 5750 5752 5754 5756 5758 5761 5764 5766 5769 5771 5774 5777 5779 5781 5783
5734 5730 5725 5721 5718 5714 5711 5709 5707 5706 5706 5706 5706 5707 5708 5709 5711 5712 5714 5717 5719 5722 5725 5728 5731 5733 5736 5738 5741 5743 5746 5747 5750 5752 5755 5757 5760 5762 5765 5768 5770 5772 5774
5725 5720 5716 5712 5708 5705 5701 5699 5697 5695 5694 5694 5695 5695 5696 5698 5700 5701 5703 5706 5709 5712 5715 5718 5721 5724 5727 5730 5732 5735 5737 5739 5741 5744 5746 5748 5751 5754 5756 5758 5761 5763 5765
5715 5711 5707 5703 5699 5696 5692 5689 5686 5685 5684 5683 5684 5684 5686 5687 5689 5691 5694 5696 5699 5703 5706 5710 5713 5716 5719 5722 5724 5727 5729 5731 5733 5735 5737 5740 5743 5745 5747 5749 5751 5753 5755
5706 5702 5698 5695 5691 5687 5684 5681 5678 5676 5675 5675 5675 5675 5676 5678 5679 5682 5685 5688 5691 5694 5698 5701 5704 5707 5711 5714 5717 5719 5721 5724 5726 5728 5730 5733 5735 5737 5739 5741 5743 5744 5744
5696 5693 5690 5686 5683 5679 5676 5673 5671 5669 5667 5667 5667 5667 5669 5670 5672 5674 5677 5680 5684 5687 5691 5694 5697 5700 5704 5707 5709 5712 5715 5717 5719 5722 5724 5726 5728 5729 5730 5732 5733 5733 5734
5686 5684 5681 5678 5675 5672 5669 5667 5665 5663 5661 5661 5661 5661 5662 5663 5666 5668 5672 5675 5678 5681 5684 5688 5691 5694 5697 5700 5703 5706 5709 5711 5714 5716 5717 5719 5720 5721 5722 5722 5722 5722 5722
5676 5674 5672 5670 5668 5665 5663 5660 5659 5658 5657 5656 5656 5657 5658 5659 5661 5663 5666 5669 5672 5676 5679 5683 5686 5689 5692 5695 5697 5700 5703 5706 5708 5709 5711 5712 5712 5712 5713 5712 5712 5711 5710
5665 5664 5663 5661 5660 5658 5657 5655 5654 5653 5652 5652 5652 5653 5655 5656 5657 5660 5663 5666 5669 5671 5674 5678 5681 5684 5687 5690 5693 5696 5699 5701 5702 5703 5704 5705 5705 5704 5704 5703 5701 5699 5697
5653 5653 5653 5653 5652 5652 5651 5650 5649 5649 5649 5649 5649 5650 5652 5654 5655 5658 5660 5663 5665 5668 5671 5674 5677 5681 5684 5687 5690 5692 5695 5696 5697 5698 5698 5698 5697 5696 5694 5692 5690 5687 5684
5640 5642 5643 5644 5645 5645 5645 5645 5644 5644 5645 5645 5646 5647 5649 5651 5652 5655 5657 5660 5663 5666 5669 5672 5675 5678 5681 5684 5687 5689 5690 5692 5692 5693 5692 5691 5689 5687 5685 5682 5679 5675 5672